Flag for U.S.A. Weather past 2 weeks in Evansville, Indiana, U.S.A.

Now
67 °F

Light rain. Fog.


Feels Like: 67 °F
Forecast: 61 / 68 °F
Wind: 6 mph from South

Location: Evansville Regional Airport

Current Time: Apr 19, 2015 at 2:36:14 PM

Latest Report: Apr 19, 2015 at 1:54 PM


Visibility: 3 mi

Pressure: 29.52 "Hg

Humidity: 90%

Dew point: 64 °F

Location of EvansvilleLocation

Historic Weather in Evansville — Graph

°F

Evansville temperature yesterday

Maximum temperature yesterday: 80 °F (at 2:54 PM)
Minimum temperature yesterday: 55 °F (at 5:54 AM)
Average temperature yesterday: 68 °F

Past Weeks' High & Low Weather Summary

 TemperatureHumidityPressure
High81 °F (Apr 9, 4:54 PM)97% (Apr 16, 7:54 AM)30.40 "Hg (Apr 16, 7:54 AM)
Low35 °F (Apr 5, 6:54 AM)24% (Apr 5, 2:54 PM)29.54 "Hg (Apr 19, 12:54 PM)
Average63 °F65%30.04 "Hg
* Reported Apr 4 12:54 PM — Apr 19 12:54 PM, Evansville, Weather by CustomWeather, © 2015

Note: Actual official high and low records may vary slightly from our data, if they occured in-between our weather recording intervals... More about our weather records

Advertising

Evansville weather history for previous 24 hours

 ConditionsComfort  
Time TempWeatherWind HumidityBarometerVisibility
12:54 PM
Sun, Apr 19
67 °FLight rain. Overcast.5 mph87%29.54 "Hg10 mi
11:54 AM64 °FLight rain. Fog.3 mph94%29.58 "Hg3 mi
10:54 AM63 °FRain. Fog.No wind93%29.60 "Hg2 mi
9:54 AM61 °FRain. Fog.3 mph97%29.64 "Hg1 mi
8:54 AM60 °FRain. Fog.6 mph93%29.66 "Hg2 mi
7:54 AM59 °FHeavy rain. Fog.8 mph93%29.68 "Hg1 mi
6:54 AM61 °FRain. Cloudy.5 mph83%29.70 "Hg3 mi
5:54 AM62 °FLight rain. Overcast.3 mph83%29.72 "Hg7 mi
4:54 AM61 °FLight rain. Mostly cloudy.3 mph90%29.74 "Hg8 mi
3:54 AM62 °FLight rain. Overcast.3 mph83%29.75 "Hg7 mi
2:54 AM65 °FLight rain. Overcast.3 mph70%29.78 "Hg8 mi
1:54 AM67 °FOvercast.No wind57%29.80 "Hg10 mi
12:54 AM68 °FPassing clouds.5 mph51%29.82 "Hg10 mi
11:54 PM
Sat, Apr 18
68 °FPassing clouds.6 mph51%29.84 "Hg10 mi
10:54 PM68 °FPassing clouds.5 mph55%29.87 "Hg10 mi
9:54 PM68 °FPassing clouds.3 mph57%29.89 "Hg10 mi
8:54 PM69 °FClear.7 mph59%29.88 "Hg10 mi
7:54 PM71 °FClear.3 mph57%29.88 "Hg10 mi
6:54 PM75 °FSunny.5 mph50%29.87 "Hg10 mi
5:54 PM78 °FSunny.7 mph40%29.88 "Hg10 mi
4:54 PM80 °FSunny.6 mph36%29.88 "Hg10 mi
3:54 PM80 °FSunny.9 mph38%29.90 "Hg10 mi
2:54 PM80 °FPassing clouds.10 mph39%29.93 "Hg10 mi
Weather by CustomWeather, © 2015

See weather overviewHow to use our weather pages